This demonstration page uses our WeatherBlox Daily Observations layout. Learn more.

Left ArrowRight Arrow

Hourly Observations for July 15, 2020

Temp ( °F °C ) Dew Point ( °F °C ) Humidity (%) Winds ( mph kmh ) Pressure ( in mb ) Visibility ( mi km ) Precip ( " mm )
12:26 am 00:26 Partly Cloudy 68 20 60 15.6 76 76 NE 12 19 29.96 1014 10 16 0.00 0.00
12:53 am 00:53 Clear 67 19.4 60 15.6 79 79 NE 12 19 29.96 1015 10 16 0.00 0.00
1:43 am 01:43 Mostly Cloudy 68 20 58 14.4 70 70 NE 13 20 29.93 1013 10 16 0.00 0.00
1:53 am 01:53 Cloudy 68 20 57 13.9 68 68 NE 10 17 29.96 1015 10 16 0.00 0.00
2:15 am 02:15 Cloudy 68 20 57 14 69 69 NNE 12 19 29.95 1014 10 16 0.00 0.00
2:53 am 02:53 Cloudy 67 19.4 57 13.9 71 71 NNE 13 20 29.95 1014 10 16 0.00 0.00
3:53 am 03:53 Mostly Cloudy 66 18.9 57 13.9 73 73 NNE 12 19 29.95 1014 10 16 0.00 0.00
4:53 am 04:53 Mostly Clear 64 17.8 56 13.3 75 75 NE 15 24 29.93 1013 10 16 0.00 0.00
5:53 am 05:53 Mostly Clear 65 18.3 55 12.8 70 70 E 10 17 29.94 1014 10 16 0.00 0.00
6:53 am 06:53 Mostly Cloudy 64 17.8 56 13.3 75 75 NNE 10 17 29.98 1015 10 16 0.00 0.00
7:53 am 07:53 Sunny 64 17.8 57 13.9 78 78 NE 8 13 29.96 1015 10 16 0.00 0.00
8:53 am 08:53 Sunny 66 18.9 58 14.4 75 75 N 13 20 30.01 1016 10 16 0.00 0.00
9:23 am 09:23 Mostly Cloudy 67 19.4 58 14.4 73 73 NNE 16 26 30.00 1016 10 16 0.00 0.00
9:53 am 09:53 Cloudy 68 20 58 14.4 70 70 NNE 17 28 30.02 1017 10 16 0.00 0.00
10:53 am 10:53 Cloudy 71 21.7 60 15.6 68 68 N 12 19 30.04 1017 10 16 0.00 0.00
11:53 am 11:53 Cloudy 74 23.3 61 16.1 64 64 N 16 26 30.06 1018 10 16 0.00 0.00
12:34 pm 12:34 Partly Cloudy with Light Rain 74 23.3 61 16.1 64 64 NE 12 19 30.00 1016 10 16 0.00 0.00
12:53 pm 12:53 Partly Cloudy with Light Rain 76 24.4 62 16.7 62 62 NE 12 19 30.03 1017 10 16 0.00 0.00
1:53 pm 13:53 Partly Cloudy with Light Rain 77 25 62 16.7 60 60 NE 8 13 30.01 1016 10 16 0.00 0.00
2:53 pm 14:53 Mostly Sunny 79 26.1 64 17.8 60 60 NNW 7 11 30.01 1016 10 16 0.00 0.00
3:53 pm 15:53 Sunny 81 27.2 65 18.3 58 58 VRB 5 7 30.00 1016 10 16 0.00 0.00
4:53 pm 16:53 Sunny 81 27.2 65 18.3 58 58 NNW 5 7 29.99 1016 10 16 0.00 0.00
5:53 pm 17:53 Sunny 82 27.8 65 18.3 56 56 VRB 5 7 29.98 1015 10 16 0.00 0.00
6:53 pm 18:53 Sunny 81 27.2 65 18.3 58 58 NE 6 9 29.97 1015 10 16 0.00 0.00
7:53 pm 19:53 Sunny 78 25.6 66 18.9 67 67 ENE 6 9 29.98 1015 10 16 0.00 0.00
8:53 pm 20:53 Sunny 75 23.9 65 18.3 71 71 E 7 11 29.99 1016 10 16 0.00 0.00
9:53 pm 21:53 Clear 73 22.8 66 18.9 79 79 SE 7 11 30.02 1017 10 16 0.00 0.00
10:53 pm 22:53 Clear 72 22.2 66 18.9 82 82 S 5 7 30.04 1017 10 16 0.00 0.00
11:53 pm 23:53 Clear 70 21.1 65 18.3 84 84 SE 5 7 30.03 1017 10 16 0.00 0.00

Powered by AerisWeather